User: anonymous   Login
Location: Trois-Rivi�res
(46.3500°N, 72.5500°W)
Time: 07:41:31
(UTC-05:00)
Language:

Vanguard 2 - Orbit

View from above orbital plane
View from above orbital plane
View from above satellite
View from above satellite

Ground track
Ground track

The orbit data is extracted from the following two-line orbital elements,

1    11U 59001A   18016.72582969 +.00000189 +00000-0 +87152-4 0  9996
2    11 032.8754 129.0924 1469236 308.9210 038.9104 11.85530277170185
Epoch (UTC): 16 January 2018 17:25:11
Eccentricity: 0.1469236
inclination: 32.8754°
perigee height: 552 km
apogee height: 2940 km
right ascension of ascending node: 129.0924°
argument of perigee: 308.9210°
revolutions per day: 11.85530277
mean anomaly at epoch: 38.9104°
orbit number at epoch: 17018

The dashed part of the orbit path shows where the satellite is in the earth's shadow,  

DLR